| time (UTC) | temp F | wind direction | speed MPH | gust MPH | rain 1hr in | rain 24hr in | rain mn in | humidity % | barometer mb |
| 20260905010050 | 85 | 234 | 11.0 | 18.0 | 0.00 | 0.00 | 0.00 | 18 | 1002.0 |
| 20260905004559 | 87 | 223 | 12.0 | 19.0 | 0.00 | 0.00 | 0.00 | 17 | 1002.0 |
| 20260905003050 | 88 | 211 | 12.0 | 19.0 | 0.00 | 0.00 | 0.00 | 16 | 1001.8 |
| 20260905001549 | 89 | 203 | 12.0 | 17.0 | 0.00 | 0.00 | 0.00 | 16 | 1001.8 |
| 20260905000049 | 89 | 226 | 11.0 | 21.0 | 0.00 | 0.00 | 0.00 | 15 | 1001.8 |
| 20260904234551 | 89 | 220 | 16.0 | 22.0 | 0.00 | 0.00 | 0.00 | 15 | 1001.8 |
| 20260904233059 | 90 | 218 | 19.0 | 24.0 | 0.00 | 0.00 | 0.00 | 15 | 1001.7 |
| 20260904231544 | 89 | 210 | 16.0 | 26.0 | 0.00 | 0.00 | 0.00 | 14 | 1001.7 |
| 20260904230044 | 90 | 245 | 18.0 | 28.0 | 0.00 | 0.00 | 0.00 | 14 | 1001.7 |
| 20260904224521 | 90 | 238 | 10.0 | 26.0 | 0.00 | 0.00 | 0.00 | 14 | 1001.7 |
| 20260904223013 | 90 | 204 | 17.0 | 24.0 | 0.00 | 0.00 | 0.00 | 15 | 1001.7 |
| 20260904221508 | 90 | 227 | 18.0 | 26.0 | 0.00 | 0.00 | 0.00 | 15 | 1001.7 |
| 20260904220010 | 90 | 233 | 13.0 | 26.0 | 0.00 | 0.00 | 0.00 | 15 | 1001.8 |
| 20260904214519 | 90 | 226 | 20.0 | 29.0 | 0.00 | 0.00 | 0.00 | 14 | 1001.6 |
| 20260904213006 | 90 | 183 | 18.0 | 30.0 | 0.00 | 0.00 | 0.00 | 14 | 1001.6 |
| 20260904211502 | 89 | 246 | 17.0 | 32.0 | 0.00 | 0.00 | 0.00 | 15 | 1001.8 |
| 20260904210002 | 90 | 231 | 24.0 | 41.0 | 0.00 | 0.00 | 0.00 | 15 | 1001.8 |
| 20260904204600 | 89 | 216 | 20.0 | 39.0 | 0.00 | 0.00 | 0.00 | 15 | 1002.1 |
| 20260904203059 | 89 | 199 | 16.0 | 27.0 | 0.00 | 0.00 | 0.00 | 16 | 1002.2 |
| 20260904201527 | 89 | 203 | 18.0 | 26.0 | 0.00 | 0.00 | 0.00 | 15 | 1002.3 |
| 20260904200030 | 89 | 202 | 18.0 | 30.0 | 0.00 | 0.00 | 0.00 | 16 | 1002.4 |
| 20260904194602 | 88 | 203 | 14.0 | 27.0 | 0.00 | 0.00 | 0.00 | 17 | 1002.6 |
| 20260904193055 | 88 | 243 | 11.0 | 31.0 | 0.00 | 0.00 | 0.00 | 17 | 1002.7 |
| 20260904191551 | 87 | 240 | 16.0 | 27.0 | 0.00 | 0.00 | 0.00 | 17 | 1002.8 |
| 20260904190051 | 87 | 217 | 11.0 | 22.0 | 0.00 | 0.00 | 0.00 | 17 | 1002.9 |
| 20260904184601 | 87 | 221 | 16.0 | 29.0 | 0.00 | 0.00 | 0.00 | 18 | 1003.0 |
| 20260904183047 | 87 | 229 | 16.0 | 28.0 | 0.00 | 0.00 | 0.00 | 18 | 1003.2 |
| 20260904181544 | 86 | 221 | 16.0 | 29.0 | 0.00 | 0.00 | 0.00 | 18 | 1003.5 |
| 20260904180055 | 86 | 243 | 18.0 | 26.0 | 0.00 | 0.00 | 0.00 | 18 | 1003.5 |
| 20260904174541 | 86 | 281 | 18.0 | 25.0 | 0.00 | 0.00 | 0.00 | 19 | 1003.6 |
| 20260904173048 | 85 | 233 | 15.0 | 35.0 | 0.00 | 0.00 | 0.00 | 21 | 1003.6 |
| 20260904171535 | 85 | 193 | 13.0 | 24.0 | 0.00 | 0.00 | 0.00 | 20 | 1003.8 |
| 20260904170034 | 85 | 193 | 12.0 | 24.0 | 0.00 | 0.00 | 0.00 | 20 | 1003.8 |
| 20260904164532 | 84 | 219 | 14.0 | 23.0 | 0.00 | 0.00 | 0.00 | 20 | 1004.0 |
| 20260904163031 | 83 | 190 | 14.0 | 20.0 | 0.00 | 0.00 | 0.00 | 20 | 1004.0 |
| 20260904161523 | 82 | 187 | 16.0 | 23.0 | 0.00 | 0.00 | 0.00 | 20 | 1004.1 |
| 20260904160034 | 80 | 170 | 15.0 | 22.0 | 0.00 | 0.00 | 0.00 | 21 | 1004.2 |
| 20260904154519 | 80 | 207 | 15.0 | 21.0 | 0.00 | 0.00 | 0.00 | 21 | 1004.1 |
| 20260904153016 | 78 | 177 | 15.0 | 20.0 | 0.00 | 0.00 | 0.00 | 22 | 1004.2 |
| 20260904151542 | 77 | 190 | 13.0 | 19.0 | 0.00 | 0.00 | 0.00 | 22 | 1004.3 |
| 20260904150044 | 76 | 189 | 15.0 | 21.0 | 0.00 | 0.00 | 0.00 | 22 | 1004.4 |
| 20260904144532 | 73 | 174 | 10.0 | 16.0 | 0.00 | 0.00 | 0.00 | 24 | 1004.4 |
| 20260904143027 | 69 | 149 | 9.0 | 13.0 | 0.00 | 0.00 | 0.00 | 26 | 1004.4 |
| 20260904141522 | 67 | 164 | 6.0 | 10.0 | 0.00 | 0.00 | 0.00 | 28 | 1004.4 |
| 20260904140018 | 64 | 137 | 6.0 | 13.0 | 0.00 | 0.00 | 0.00 | 29 | 1004.2 |
| 20260904134546 | 62 | 150 | 8.0 | 15.0 | 0.00 | 0.00 | 0.00 | 31 | 1004.0 |
| 20260904133044 | 59 | 140 | 6.0 | 10.0 | 0.00 | 0.00 | 0.00 | 32 | 1004.0 |
| 20260904131601 | 57 | 151 | 4.0 | 9.0 | 0.00 | 0.00 | 0.00 | 34 | 1003.8 |
| 20260904130040 | 55 | 142 | 4.0 | 7.0 | 0.00 | 0.00 | 0.00 | 34 | 1003.8 |
| 20260904124542 | 56 | 226 | 2.0 | 7.0 | 0.00 | 0.00 | 0.00 | 33 | 1003.7 |
| 20260904123040 | 56 | 175 | 4.0 | 11.0 | 0.00 | 0.00 | 0.00 | 31 | 1003.4 |
| 20260904121531 | 56 | 141 | 7.0 | 10.0 | 0.00 | 0.00 | 0.00 | 31 | 1003.2 |
| 20260904120029 | 56 | 178 | 4.0 | 9.0 | 0.00 | 0.00 | 0.00 | 32 | 1003.1 |
| 20260904114539 | 56 | 173 | 3.0 | 8.0 | 0.00 | 0.00 | 0.00 | 31 | 1003.1 |
| 20260904113027 | 58 | 161 | 10.0 | 14.0 | 0.00 | 0.00 | 0.00 | 30 | 1002.9 |
| 20260904111523 | 56 | 164 | 4.0 | 6.0 | 0.00 | 0.00 | 0.00 | 34 | 1002.7 |
| 20260904110026 | 58 | 209 | 3.0 | 6.0 | 0.00 | 0.00 | 0.00 | 34 | 1002.6 |
| 20260904104522 | 60 | 146 | 7.0 | 9.0 | 0.00 | 0.00 | 0.00 | 29 | 1002.5 |
| 20260904103022 | 56 | 176 | 5.0 | 6.0 | 0.00 | 0.00 | 0.00 | 32 | 1002.5 |
| 20260904101520 | 57 | 218 | 4.0 | 6.0 | 0.00 | 0.00 | 0.00 | 36 | 1002.5 |
| 20260904100015 | 60 | 194 | 3.0 | 4.0 | 0.00 | 0.00 | 0.00 | 28 | 1002.4 |
| 20260904094514 | 58 | 183 | 3.0 | 5.0 | 0.00 | 0.00 | 0.00 | 30 | 1002.5 |
| 20260904093014 | 61 | 178 | 0.0 | 6.0 | 0.00 | 0.00 | 0.00 | 27 | 1002.5 |
| 20260904091514 | 62 | 145 | 7.0 | 8.0 | 0.00 | 0.00 | 0.00 | 26 | 1002.4 |
| 20260904090043 | 59 | 183 | 5.0 | 10.0 | 0.00 | 0.00 | 0.00 | 31 | 1002.4 |
| 20260904084543 | 60 | 131 | 4.0 | 5.0 | 0.00 | 0.00 | 0.00 | 29 | 1002.3 |
| 20260904083014 | 61 | 152 | 3.0 | 7.0 | 0.00 | 0.00 | 0.00 | 27 | 1002.5 |
| 20260904081515 | 60 | 172 | 4.0 | 6.0 | 0.00 | 0.00 | 0.00 | 27 | 1002.5 |
| 20260904080041 | 58 | 196 | 4.0 | 7.0 | 0.00 | 0.00 | 0.00 | 31 | 1002.7 |
| 20260904074552 | 58 | 133 | 4.0 | 6.0 | 0.00 | 0.00 | 0.00 | 31 | 1002.7 |
| 20260904073038 | 59 | 206 | 1.0 | 3.0 | 0.00 | 0.00 | 0.00 | 29 | 1002.7 |
| 20260904071535 | 62 | 201 | 3.0 | 7.0 | 0.00 | 0.00 | 0.00 | 27 | 1002.8 |
| 20260904070031 | 62 | 228 | 7.0 | 10.0 | 0.00 | 0.00 | 0.00 | 26 | 1002.8 |
| 20260904064529 | 62 | 218 | 3.0 | 7.0 | 0.00 | 0.00 | 0.00 | 26 | 1002.8 |
| 20260904063038 | 62 | 146 | 5.0 | 11.0 | 0.00 | 0.00 | 0.00 | 23 | 1002.6 |
| 20260904061525 | 63 | 195 | 2.0 | 8.0 | 0.00 | 0.00 | 0.00 | 26 | 1002.6 |
| 20260904060023 | 63 | 138 | 6.0 | 10.0 | 0.00 | 0.00 | 0.00 | 23 | 1002.6 |
| 20260904054519 | 63 | 128 | 9.0 | 13.0 | 0.00 | 0.00 | 0.00 | 23 | 1002.4 |
| 20260904053046 | 62 | 186 | 5.0 | 7.0 | 0.00 | 0.00 | 0.00 | 26 | 1002.1 |
| 20260904051547 | 64 | 185 | 5.0 | 8.0 | 0.00 | 0.00 | 0.00 | 25 | 1002.0 |
| 20260904050015 | 63 | 172 | 6.0 | 8.0 | 0.00 | 0.00 | 0.00 | 25 | 1001.8 |
| 20260904044530 | 62 | 207 | 4.0 | 6.0 | 0.00 | 0.00 | 0.00 | 26 | 1001.9 |
| 20260904043012 | 63 | 178 | 6.0 | 8.0 | 0.00 | 0.00 | 0.00 | 24 | 1001.8 |
| 20260904041511 | 62 | 189 | 4.0 | 6.0 | 0.00 | 0.00 | 0.00 | 26 | 1001.8 |
| 20260904040011 | 60 | 204 | 3.0 | 5.0 | 0.00 | 0.00 | 0.00 | 27 | 1001.9 |
| 20260904034510 | 60 | 192 | 3.0 | 4.0 | 0.00 | 0.00 | 0.00 | 28 | 1001.9 |
| 20260904033007 | 60 | 183 | 4.0 | 6.0 | 0.00 | 0.00 | 0.00 | 27 | 1001.8 |
| 20260904031504 | 61 | 178 | 4.0 | 6.0 | 0.00 | 0.00 | 0.00 | 24 | 1001.7 |
| 20260904030003 | 61 | 196 | 4.0 | 6.0 | 0.00 | 0.00 | 0.00 | 25 | 1001.7 |
| 20260904024603 | 62 | 201 | 2.0 | 5.0 | 0.00 | 0.00 | 0.00 | 26 | 1001.6 |
| 20260904023058 | 63 | 189 | 4.0 | 6.0 | 0.00 | 0.00 | 0.00 | 23 | 1001.4 |
| 20260904021551 | 65 | 190 | 3.0 | 6.0 | 0.00 | 0.00 | 0.00 | 22 | 1001.2 |
| 20260904020049 | 68 | 194 | 5.0 | 6.0 | 0.00 | 0.00 | 0.00 | 19 | 1000.9 |
| 20260904014549 | 72 | 196 | 4.0 | 7.0 | 0.00 | 0.00 | 0.00 | 17 | 1000.9 |
| 20260904013049 | 75 | 183 | 4.0 | 5.0 | 0.00 | 0.00 | 0.00 | 15 | 1000.8 |
| 20260904011548 | 78 | 215 | 4.0 | 9.0 | 0.00 | 0.00 | 0.00 | 14 | 1000.7 |